Location: Newark
(41.9000°N, 12.4833°E)
Time: 04:26:33
(UTC+00:00)

EO-88 - Pass Details

Date: 26 May 2019
Orbit: 484 x 494 km, 97.4° (Epoch: 24 June)

Event Time Altitude Azimuth Distance (km) Brightness Sun altitude
Exits shadow 21:03:47 41° 227° (SW) 729 ? -20.8°
Maximum altitude 21:04:26 47° 261° (W) 668 ? -20.8°
Drops below altitude 10° 21:07:59 10° 336° (NNW) 1,700 ? -21.2°
Sets 21:10:08 0° 342° (NNW) 2,588 ? -21.3°
